Location: Luz Observatory
(34.5000°N, 117.2833°W)
Time: 16:55:38
(UTC-07:00)

Daily predictions for brighter satellites

Satellite Brightness Start Highest point End
(mag) Time Altitude Azimuth Time Altitude Azimuth Time Altitude Azimuth
Cosmos 1844 3.8 19:18:00 10° S 19:23:42 71° ESE 19:29:28 10° NNE
Cosmos 192 4.4 19:19:08 10° N 19:24:01 59° ENE 19:28:50 10° SSE
Cosmos 1812 Rocket 3.7 19:28:57 10° S 19:33:14 51° E 19:37:30 10° NNE
METEOR-M 4.2 19:28:10 10° SSE 19:33:30 89° WSW 19:38:52 10° NNW
Cosmos 1821 Rocket 4.0 19:32:58 10° S 19:39:19 74° E 19:45:40 10° N
Resurs 01 Rocket 2.3 19:36:57 10° SE 19:40:54 33° ENE 19:44:52 10° N
Spot 2 Rocket 4.1 19:36:37 10° SE 19:41:13 35° ENE 19:45:50 10° N
Cosmos 1805 4.5 19:38:52 10° SE 19:41:50 21° E 19:44:48 10° NE
Cosmos 1437 Rocket 3.0 19:42:42 10° SSW 19:46:40 77° W 19:50:44 10° N
Cosmos 2150 Rocket 4.3 19:41:48 10° SSW 19:46:55 71° WNW 19:52:04 10° NNE
Delta 2 Rocket 3.5 19:44:48 10° W 19:49:41 85° N 19:53:08 15° E
USA 215 3.6 19:44:29 10° ENE 19:50:39 43° SE 19:56:47 10° SSW
SJ-6B 2.8 19:47:26 10° S 19:51:09 81° WSW 19:54:54 10° NNW
ALOS 2.2 19:47:40 10° SSE 19:52:19 76° ENE 19:57:00 10° N
Meteor 1-22 Rocket 4.3 19:47:32 10° S 19:53:15 78° E 19:59:14 10° N
Cosmos 990 Rocket 4.1 19:48:49 10° SSW 19:54:04 83° WNW 19:59:21 10° NNE
CZ-3 Stage 3 4.4 18:44:43 10° WSW 19:56:23 75° S 20:03:52 16° E
Cosmos 1605 Rocket 4.1 19:51:18 10° SSE 19:57:20 54° E 20:03:28 10° NNE
Envisat 4.4 19:57:27 16° E 19:59:21 19° ENE 20:02:51 10° NNE
BREEZE-M DEB (TANK) 2.8 19:57:11 10° SSW 19:59:45 40° SE 20:06:00 10° ENE
Helios 1B rocket 3.2 19:56:18 10° NE 19:59:55 29° E 20:03:31 10° SSE
Yuri Rocket 3.8 19:56:31 10° WSW 20:00:27 35° S 20:03:03 18° SE
Helios 1A 4.0 20:00:31 18° ESE 20:02:32 26° ENE 20:06:01 10° NNE
Cosmos 1844 Rocket 4.3 19:58:30 10° SW 20:03:43 38° WNW 20:08:56 10° N
In-Cosmos 22 4.3 20:00:03 10° N 20:05:10 48° ENE 20:10:14 10° SSE
Cosmos 1125 Rocket 3.9 20:00:30 10° SSE 20:05:15 38° E 20:10:02 10° NE
Cosmos 1378 3.4 20:01:31 10° NNW 20:05:16 71° W 20:08:58 10° S
Lacrosse 4 Rocket 3.8 20:02:24 10° WSW 20:05:43 24° WNW 20:09:02 10° N
HJ-1C 3.8 20:06:04 10° S 20:09:26 66° W 20:12:49 10° NNW
Cosmos 2344 4.0 20:02:23 10° SW 20:10:02 68° WNW 20:18:20 10° NNE
Aurora 2 Rocket 4.5 20:06:26 10° SW 20:11:24 22° S 20:13:44 17° SE
Cosmos 1758 3.5 20:09:10 10° SSE 20:12:56 44° E 20:16:45 10° NNE
Cosmos 2123 Rocket 3.9 20:08:09 10° N 20:14:29 77° E 20:20:44 10° S
Cosmos 2278 Rocket 2.4 20:10:05 10° SSW 20:15:45 75° WNW 20:21:27 10° NNE
Geosat 4.0 20:11:55 10° NNE 20:16:58 87° WNW 20:21:59 10° SSW
Cosmos 1833 Rocket 4.0 20:13:23 10° N 20:17:36 21° ENE 20:18:39 20° ENE
Lacrosse 5 2.9 20:13:14 10° WSW 20:18:07 47° NW 20:23:01 10° NNE
H-2A R/B 2.8 20:15:26 10° S 20:19:16 79° W 20:23:12 10° NNW
FENGYUN 3A 4.2 20:14:53 10° S 20:20:13 61° W 20:25:34 10° NNW
SL-27 R/B 2.5 20:18:20 10° NNW 20:21:56 84° WSW 20:24:31 18° SSE
Cosmos 1953 2.4 20:18:25 10° S 20:22:23 55° E 20:26:22 10° NNE
Meteor 1-4 Rocket 2.4 20:19:12 10° S 20:22:36 54° E 20:26:00 10° NNE
Cosmos 1939 Rocket 4.3 20:24:03 22° ENE 20:24:03 22° ENE 20:26:41 10° NNE
Resurs 1-3 3.6 20:21:30 10° SSE 20:25:53 84° W 20:30:17 10° NNW
Cosmos 1544 2.9 20:23:10 10° S 20:26:48 88° E 20:30:28 10° N
Meteor 1-29 3.1 20:24:05 10° NNE 20:27:28 48° E 20:27:30 48° ESE
Cosmos 1153 Rocket 4.5 20:21:45 10° S 20:28:03 66° E 20:34:24 10° NNE
Cosmos 2297 3.7 20:23:45 10° S 20:29:20 62° ESE 20:34:59 10° NNE
SeaSat 1 3.5 20:27:45 10° S 20:32:25 44° WSW 20:37:08 10° NW
Cosmos 1818 4.1 20:29:55 10° NNW 20:35:01 39° NE 20:36:09 35° E
ATLAS 5 CENTAUR R/B 2.1 20:31:07 10° S 20:35:08 40° ESE 20:35:08 40° ESE
Tiangong 1 1.9 20:40:51 10° WNW 20:43:02 43° NW 20:43:02 43° NW
Cosmos 1269 Rocket 4.2 20:42:13 10° N 20:47:19 48° ENE 20:47:43 47° E
Cosmos 1408 Rocket 3.8 20:43:34 10° N 20:47:32 51° ENE 20:47:32 51° ENE
Cosmos 2082 Rocket 2.5 20:44:07 10° N 20:49:32 44° ENE 20:49:57 43° ENE
Cosmos 2098 Rocket 4.4 20:43:56 10° S 20:50:49 83° W 20:58:28 10° N
USA 186 4.3 20:53:13 12° NNW 20:53:13 12° NNW 20:53:24 10° NNW
Cosmos 1447 Rocket 4.3 20:47:20 10° N 20:53:30 87° E 20:57:50 21° S
Cosmos 1459 Rocket 3.9 20:49:24 15° S 20:54:38 62° E 21:00:45 10° NNE
Okean 3 Rocket 4.4 20:51:20 10° NNW 20:55:35 50° W 20:59:00 15° SSW
Cosmos 468 4.4 20:50:26 10° NNW 20:55:41 87° ENE 20:57:06 50° SSE
RESURS DK-1 3.6 20:52:10 10° NW 20:56:01 39° WSW 20:57:48 25° SSW
Cosmos 2173 Rocket 3.9 20:54:35 26° SSE 20:58:03 64° E 21:04:12 10° NNE
GPS 2-05 Rocket1 4.3 20:57:33 10° WSW 20:59:44 34° WSW 20:59:44 34° WSW
SJ-11-01 4.1 21:03:05 77° ENE 21:03:05 77° ENE 21:07:44 10° N
Cosmos 1867 4.0 21:01:26 10° SW 21:06:48 62° WNW 21:12:14 10° NNE
Cosmos 372 Rocket 4.3 21:06:46 10° SSW 21:11:48 63° WNW 21:16:54 10° N
Cosmos 1674 4.3 21:10:50 10° NNW 21:12:51 30° NNW 21:12:51 30° NNW
GP-B 3.9 21:13:13 34° SW 21:14:43 48° W 21:19:02 10° NNW
Resurs 01 Rocket 4.3 21:14:28 10° SW 21:17:24 17° W 21:20:22 10° NW
Cosmos 158 Rocket 4.3 21:22:22 10° NNW 21:26:35 61° NNW 21:26:35 61° NNW
Cosmos 2016 Rocket 4.0 21:30:07 71° NNE 21:30:07 71° NNE 21:35:36 10° N
H-2A R/B 4.4 21:35:57 12° NNE 21:35:57 12° NNE 21:36:32 10° NNE
USA 215 4.1 21:27:25 10° NNE 21:33:37 47° NW 21:39:47 10° WSW
Envisat 3.9 21:37:39 42° WSW 21:38:00 42° W 21:42:50 10° NNW
Cosmos 1833 Rocket 3.9 21:56:22 10° NW 22:00:23 39° WNW 22:00:23 39° WNW
USA 267 4.3 22:04:45 35° N 22:04:45 35° N 22:09:23 10° NNW
H-2A R/B (2) 4.2 22:00:40 10° WSW 22:44:04 - ESE 22:02:10 22° SW
Cosmos 2082 Rocket 4.4 22:29:04 10° NW 22:31:51 19° W 22:31:51 19° W
